Location: Marsån
(66.4167°N, 22.2833°E)
Time: 07:28:58
(UTC+00:00)

Cosmos 494 Rocket - Pass Details

Date: 24 February 2024
Orbit: 741 x 767 km, 74.1° (Epoch: 20 April)

Event Time Altitude Azimuth Distance (km) Brightness Sun altitude
Rises 19:48:00 0° 312° (NW) 3,249 8.6 -25.7°
Reaches altitude 10° 19:50:24 10° 315° (NW) 2,317 7.5 -25.9°
Maximum altitude 19:55:39 67° 39° (NE) 832 4.1 -26.3°
Enters shadow 19:55:46 67° 48° (NE) 833 4.0 -26.3°
